Probability
1 1 0 0 0 0 0 0 0 1 2 2 1 0 0 0 0 0 1 4 6 6 6 5 4 3 1 0 1 2 1 1 1 1 1 3 4 5 4 3 3 3 3
2 2 1 0 0 0 0 0 0 0 1 1 0 0 0 1 1 1 3 5 6 6 6 4 3 2 1 0 1 2 2 1 0 0 0 1 3 4 4 3 3 3 3
3 3 2 1 1 0 0 0 0 0 0 0 0 0 0 1 2 3 4 5 5 5 5 4 3 3 2 1 0 1 1 1 0 0 0 0 1 2 3 3 3 3 3
2 3 3 2 1 0 0 0 0 0 0 0 0 0 0 1 1 3 4 4 3 3 3 4 5 4 4 3 1 0 0 0 0 0 0 0 0 1 2 3 3 3 3
3 3 3 2 2 1 0 0 0 0 0 0 0 0 0 0 1 2 3 2 2 1 1 2 4 5 6 5 3 1 0 0 0 0 0 0 0 0 1 2 3 3 3
4 3 3 2 2 2 1 0 0 0 0 0 0 0 0 0 0 1 1 1 1 1 2 1 2 4 6 6 5 3 2 1 0 0 0 0 0 0 1 2 3 3 3
5 4 3 2 2 2 1 0 0 0 0 0 0 0 0 0 0 0 0 0 0 2 3 2 1 2 4 5 5 5 5 3 1 0 0 0 0 0 1 1 3 3 3
5 4 3 2 2 2 1 0 0 0 0 0 0 0 0 0 0 0 0 1 1 2 3 2 1 1 3 3 4 5 6 5 3 1 1 1 0 0 0 2 3 3 3
4 4 3 3 3 2 1 0 0 0 0 0 0 0 0 0 0 0 0 1 1 1 2 2 1 1 1 2 3 4 5 6 5 3 2 2 1 0 0 1 2 2 1
4 3 3 3 3 2 1 0 0 0 0 0 0 0 0 0 0 0 0 1 1 0 1 1 0 0 1 2 3 3 3 3 3 2 2 2 1 0 0 0 1 1 0
2 2 2 3 3 1 1 1 1 0 0 0 0 0 0 0 0 0 0 0 0 0 0 0 0 0 1 2 3 3 2 1 1 1 0 1 1 0 0 0 0 0 0
1 1 2 3 2 1 1 2 2 1 0 0 0 0 0 0 0 0 0 0 0 0 0 0 0 0 1 2 3 3 2 1 0 0 0 0 0 0 0 0 0 0 0
0 1 2 3 2 1 2 3 3 1 1 0 0 0 0 0 0 0 0 0 0 0 0 0 0 0 0 1 2 3 3 2 1 0 0 0 0 0 0 0 0 0 0
2 1 2 3 3 2 3 3 3 3 2 1 0 0 0 0 0 0 0 0 0 0 0 0 0 0 0 0 1 1 2 2 1 0 0 0 0 0 0 0 0 0 0
4 2 1 2 3 3 3 4 4 3 2 1 0 0 0 0 0 0 0 0 0 0 0 0 0 0 0 0 0 1 1 1 0 0 0 0 0 0 0 0 0 0 0
4 2 1 1 1 3 4 5 5 3 2 1 0 0 0 0 0 0 0 0 0 0 0 0 0 0 0 0 0 0 0 0 0 0 0 0 0 0 0 0 0 0 0
3 3 2 1 1 2 4 5 4 2 2 1 0 0 0 0 0 0 0 0 0 0 0 0 0 0 0 0 0 0 0 0 0 0 0 0 0 0 0 0 0 0 0
3 3 2 1 0 1 2 2 1 1 2 2 1 1 0 0 0 0 0 0 0 0 0 0 0 0 0 0 0 0 0 0 0 0 0 0 0 0 0 0 0 0 0
4 3 2 1 0 0 0 0 0 1 1 2 2 2 1 1 0 0 0 0 0 0 0 0 0 0 0 0 0 0 0 0 0 0 0 0 0 0 0 0 0 0 0
5 4 3 2 1 0 0 0 0 1 1 1 3 3 3 2 1 0 0 0 0 0 0 0 0 0 0 0 0 0 0 0 0 0 0 0 0 0 0 0 0 0 0
5 4 3 3 2 1 0 0 0 0 0 1 2 3 3 2 1 0 0 0 0 0 0 0 0 0 0 0 0 0 0 0 0 0 0 0 0 0 0 0 0 0 0
5 4 3 3 3 2 0 0 0 0 0 0 1 3 3 1 1 0 0 0 0 0 0 0 0 0 0 0 0 0 0 0 0 0 0 0 0 0 0 0 0 0 0
5 5 3 2 2 2 1 0 0 0 0 0 1 2 2 1 0 0 0 0 0 0 0 0 0 0 0 0 0 0 0 0 0 0 0 0 0 0 0 0 0 0 0
6 5 3 1 1 1 1 0 0 0 0 0 0 1 1 0 0 0 0 0 0 0 0 0 0 0 0 0 0 0 0 0 0 0 0 0 0 0 0 0 0 0 0
4 4 2 1 0 0 0 0 0 0 0 0 0 0 0 0 0 0 0 0 0 0 0 0 0 0 0 0 0 0 0 0 0 0 0 0 0 0 0 0 0 0 0
3 2 1 0 0 0 0 0 0 0 0 0 0 0 0 0 0 0 0 0 0 0 0 0 0 0 0 0 0 0 0 0 0 0 0 0 0 0 0 0 0 0 0
Wind_Speed
2 2 2 2 2 1 2 1 1 1 1 1 2 2 2 3 3 2 2 6 8 8 9 10 10 10 10 9 9 8 8 7 7 6 6 6 6 6 6 6 6 5 5
3 3 2 2 2 2 2 2 2 1 1 1 1 2 2 2 3 3 2 4 7 8 8 9 9 10 10 10 9 9 8 7 7 7 6 6 6 6 6 6 6 5 5
4 3 3 2 2 2 2 2 2 1 1 1 1 1 1 1 2 3 2 2 3 6 7 7 8 9 9 9 10 9 8 8 7 7 6 6 6 6 7 7 6 5 5
4 3 3 3 2 2 2 2 2 1 1 1 0 0 1 1 2 2 2 2 2 2 4 6 8 8 9 9 9 9 8 8 7 7 6 6 6 7 7 7 6 6 5
4 4 3 2 2 2 2 2 1 1 1 1 1 1 1 1 1 1 2 3 2 2 2 4 6 7 8 8 8 9 8 8 7 6 6 5 6 7 8 7 6 6 5
4 4 3 3 3 2 1 1 1 1 1 1 1 0 0 1 1 1 2 2 2 3 3 3 3 4 7 7 7 8 8 7 6 6 5 4 4 6 7 8 7 6 5
4 4 3 3 3 3 3 2 2 1 0 1 2 1 2 1 0 1 1 2 2 3 3 3 2 2 2 5 6 7 7 7 6 6 6 5 4 5 6 6 6 6 6
4 4 4 3 2 2 2 2 2 1 0 1 2 2 1 3 2 1 1 2 2 2 2 4 3 3 2 2 4 7 7 7 7 6 6 6 5 5 5 6 6 6 6
3 3 4 3 3 3 2 2 3 3 1 0 1 3 2 2 2 2 1 1 2 2 2 2 3 3 4 3 3 5 7 7 7 7 7 6 6 6 6 6 6 6 6
2 3 3 3 3 2 3 2 3 2 3 1 1 1 2 3 2 1 2 1 1 2 3 3 3 3 3 3 3 5 5 5 6 6 6 6 6 7 7 6 6 7 7
2 2 3 3 3 2 3 2 2 2 2 2 1 1 0 1 1 2 1 2 1 1 2 3 3 3 3 3 3 4 5 5 5 5 6 6 6 7 7 7 7 7 7
1 2 3 3 3 3 3 3 2 3 2 2 2 1 2 1 1 2 2 2 1 2 1 1 2 3 3 3 5 6 6 6 5 5 5 5 6 6 7 7 7 7 7
1 2 2 2 2 2 3 2 2 2 2 2 2 2 2 2 2 2 2 1 1 1 0 1 2 2 3 3 3 7 7 7 6 6 6 6 6 6 7 7 7 7 7
3 3 2 2 2 3 3 2 2 2 2 2 2 2 2 2 2 2 3 3 1 1 1 2 1 2 2 3 4 6 5 8 7 7 7 7 6 6 7 7 7 6 6
2 2 2 2 2 2 3 3 2 2 2 2 2 2 1 1 1 2 2 3 4 2 2 2 1 2 2 2 4 4 4 7 8 8 8 7 7 7 7 7 7 6 6
2 2 2 2 2 1 2 2 2 2 1 1 1 1 1 1 1 1 1 1 2 3 3 3 2 2 2 2 4 4 4 7 8 9 8 8 8 8 8 7 7 7 6
2 3 2 2 2 2 2 2 2 2 2 2 1 2 2 2 1 1 1 1 1 2 2 2 1 1 1 2 2 2 3 4 4 8 9 9 8 8 8 7 7 6 6
2 3 2 2 2 2 2 2 3 2 2 2 3 2 2 2 2 1 1 2 2 2 3 2 1 1 2 2 2 2 3 3 3 6 9 9 8 8 7 7 7 6 6
2 2 2 2 2 2 2 2 2 2 3 3 3 3 3 2 2 1 2 2 1 1 2 2 2 1 1 1 1 2 2 2 3 4 6 7 8 8 7 7 7 7 7
2 2 2 2 2 2 2 2 2 2 2 2 2 2 2 3 3 3 2 2 2 1 1 1 1 1 1 1 1 1 1 1 2 2 2 3 5 6 7 7 8 8 8
3 2 2 2 2 2 2 2 2 2 2 2 2 2 2 3 3 3 3 3 3 2 2 2 1 1 1 0 1 1 1 2 2 1 1 1 1 2 3 6 8 9 9
2 1 1 2 2 2 2 3 2 2 2 2 2 2 3 2 3 4 4 4 5 5 4 3 2 2 3 3 2 2 1 0 2 2 1 2 1 2 3 3 7 9 10
2 1 1 2 2 3 3 3 3 2 3 3 3 3 3 2 2 2 3 4 4 6 7 6 4 4 4 4 3 2 2 2 4 3 2 2 2 3 3 4 7 9 9
2 2 2 2 2 3 4 4 4 2 2 3 3 4 3 2 2 2 2 2 2 3 5 5 5 5 4 4 5 5 4 3 2 2 2 2 2 3 3 3 6 8 9
2 2 2 3 3 3 4 5 4 2 2 3 3 3 3 3 3 3 3 2 2 3 4 5 5 5 5 5 4 2 1 1 2 3 2 2 2 2 2 3 4 6 7
3 2 2 3 4 4 4 5 5 2 2 3 2 3 4 4 3 4 4 4 4 4 3 2 2 3 3 4 5 5 4 3 2 3 3 3 2 1 2 2 2 2 3
Wind_Direction
171 171 176 179 187 173 172 173 184 189 178 179 190 186 169 167 164 174 193 197 195 192 191 191 187 184 186 188 185 183 183 181 182 182 183 184 183 179 176 177 174 171 176
162 157 160 166 173 171 173 163 157 154 145 144 155 175 172 169 169 169 187 206 199 197 197 196 194 191 193 192 188 186 187 185 188 187 188 186 184 182 179 177 174 177 182
158 155 160 166 176 164 150 119 122 110 107 99 108 159 151 168 174 165 180 193 199 202 200 199 197 195 194 195 194 192 189 189 190 190 192 190 190 186 183 182 181 180 184
156 151 153 165 165 143 123 120 126 118 103 90 84 241 180 169 182 187 178 177 188 199 204 197 196 197 195 198 199 196 195 194 191 194 197 200 202 196 189 185 183 183 187
153 150 153 157 149 134 132 151 126 144 150 146 178 191 200 201 196 191 181 187 195 193 195 194 192 196 200 201 202 202 199 196 194 198 200 211 210 197 187 184 186 189 194
150 146 148 148 140 135 136 142 140 130 156 183 186 70 227 208 183 190 191 188 193 198 188 182 178 191 194 199 200 200 198 194 190 192 187 195 187 184 175 178 187 192 200
142 142 147 149 149 154 164 154 139 127 140 120 79 16 345 318 206 199 197 182 194 194 172 174 176 179 190 198 201 200 199 194 196 196 187 188 178 172 174 181 188 192 199
150 154 154 160 158 145 134 135 125 122 175 123 124 102 7 345 331 251 189 189 197 173 172 184 180 180 182 181 193 193 197 198 199 199 196 197 197 190 189 195 199 198 200
158 155 163 164 163 157 162 164 148 140 158 226 137 140 143 220 293 321 259 208 189 176 189 186 187 187 186 180 183 196 199 201 202 204 202 201 201 202 205 208 209 208 208
168 164 161 165 167 166 170 180 160 150 142 167 256 191 172 164 156 300 320 304 211 193 198 194 189 190 182 177 184 191 197 201 206 207 203 202 205 209 214 217 217 215 219
182 168 163 164 173 175 177 177 158 156 159 171 183 195 179 129 140 153 246 298 313 249 211 197 183 186 184 183 187 195 194 195 200 203 203 208 211 215 220 224 222 222 223
195 171 162 167 175 174 176 186 186 177 183 184 186 178 164 164 185 169 194 238 259 271 241 198 185 189 190 189 198 194 195 192 198 204 208 212 215 220 224 226 228 227 226
192 206 178 178 180 182 180 175 179 195 191 187 195 204 198 194 175 167 161 191 234 286 329 248 216 198 195 187 204 200 198 197 202 207 212 216 221 224 228 231 232 232 229
195 194 184 188 194 187 187 176 180 204 198 199 209 202 200 212 189 174 170 158 141 313 311 260 248 213 205 193 212 201 200 203 207 210 214 220 225 228 228 229 231 231 229
189 180 183 184 199 196 192 181 189 208 204 204 213 207 201 218 206 192 176 163 157 184 247 253 246 227 210 194 206 198 205 215 217 218 220 223 227 230 229 227 228 228 226
178 172 183 183 195 205 201 185 189 196 183 222 215 211 227 230 229 194 178 169 162 168 214 236 231 226 207 205 202 201 216 220 225 226 227 228 229 231 231 228 226 225 223
171 175 184 189 194 198 200 189 195 181 191 223 239 221 238 227 212 219 184 164 170 164 198 257 245 246 194 211 205 217 224 219 226 230 230 230 230 229 229 228 226 222 218
174 178 177 181 202 202 203 200 206 198 197 212 229 228 244 233 211 217 195 195 199 190 180 210 245 234 225 223 212 223 236 229 229 232 229 230 228 228 227 225 220 217 216
180 186 177 186 208 207 201 204 203 208 214 221 225 218 224 208 222 218 194 199 209 203 170 174 217 231 245 237 215 254 255 264 248 239 228 227 227 225 222 223 221 219 220
183 194 196 203 205 194 190 200 193 203 223 240 239 222 216 203 208 209 204 204 195 158 155 161 189 220 238 250 166 227 287 289 272 278 251 224 221 222 224 225 225 223 223
190 194 191 207 207 197 201 192 199 204 217 242 247 234 228 223 220 212 203 196 189 178 173 176 188 192 214 174 218 216 228 271 282 260 262 251 218 229 234 234 231 230 227
183 174 181 192 197 220 208 198 201 213 215 213 227 242 244 231 231 225 223 211 195 189 188 187 196 201 219 213 207 203 202 238 286 266 181 266 203 233 239 229 233 227 224
192 196 213 201 205 225 221 220 224 212 220 220 214 217 238 243 227 232 242 242 234 221 200 185 192 208 209 208 192 206 212 207 232 237 175 256 245 246 245 238 229 226 223
205 204 213 220 224 243 233 226 224 227 231 228 218 214 215 223 228 216 227 246 255 247 219 201 199 208 211 208 197 198 205 221 265 262 170 225 249 248 255 247 237 229 228
218 215 210 213 223 249 243 232 219 227 238 242 232 213 201 207 225 205 194 216 258 279 257 222 214 214 210 208 187 147 156 158 262 269 202 193 243 253 262 255 247 233 232
223 225 226 226 222 237 246 231 215 207 233 242 242 232 220 214 215 199 196 203 228 250 251 253 245 243 230 225 206 188 185 185 211 252 232 186 223 198 278 269 247 231 232